When you browse on this site, cookies collect data to enhance your experience and personalize the content and advertising you see.
Visit our Privacy Policy to learn more. By continuing to use the site, you agree to this use of cookies and data.
  • In Hungary
  • List of Countries
  • For 7 days
  • Water Temperature
  • Satellite Maps
  • Weather Map
  • News
  • Weather Widgets
  • user-avatar
    Login

    Hourly Weather Caracas

    Today, 22 July, Monday

    Time Temperature Precipitation Wind Pressure Humidity
    00:00 +16°C° 0 mm 2 mps 649 mmHg 93%
    01:00 +16°C° 0 mm 3 mps 649 mmHg 92%
    02:00 +16°C° 0 mm 3 mps 649 mmHg 91%
    03:00 +16°C° 0 mm 2 mps 648 mmHg 91%
    04:00 +16°C° 0 mm 2 mps 648 mmHg 91%
    05:00 +16°C° 0 mm 2 mps 648 mmHg 91%
    06:00 +17°C° 0 mm 2 mps 649 mmHg 88%
    07:00 +18°C° 0 mm 2 mps 649 mmHg 85%
    08:00 +19°C° 0 mm 2 mps 650 mmHg 81%
    09:00 +21°C° 0 mm 2 mps 650 mmHg 76%
    10:00 +23°C° 0 mm 2 mps 651 mmHg 71%
    11:00 +25°C° 0 mm 3 mps 651 mmHg 65%
    12:00 +25°C° 0.7 mm 3 mps 651 mmHg 68%
    13:00 +25°C° 0.7 mm 3 mps 650 mmHg 71%
    14:00 +25°C° 0.7 mm 3 mps 650 mmHg 74%
    15:00 +24°C° 0.9 mm 2 mps 649 mmHg 76%
    16:00 +24°C° 0.9 mm 2 mps 649 mmHg 79%
    17:00 +23°C° 0.9 mm 2 mps 648 mmHg 82%
    18:00 +21°C° 0.2 mm 2 mps 648 mmHg 85%
    19:00 +20°C° 0.2 mm 2 mps 648 mmHg 88%
    20:00 +18°C° 0.2 mm 2 mps 649 mmHg 91%
    21:00 +18°C° 0.2 mm 2 mps 649 mmHg 91%
    22:00 +18°C° 0.2 mm 2 mps 649 mmHg 90%
    23:00 +18°C° 0.2 mm 2 mps 650 mmHg 90%

    Tomorrow, 23 July, Tuesday

    Time Temperature Precipitation Wind Pressure Humidity
    00:00 +18°C° 1.3 mm 2 mps 650 mmHg 91%
    01:00 +17°C° 1.3 mm 2 mps 649 mmHg 92%
    02:00 +17°C° 1.3 mm 2 mps 649 mmHg 94%
    03:00 +17°C° 0.3 mm 2 mps 649 mmHg 93%
    04:00 +17°C° 0.3 mm 2 mps 649 mmHg 93%
    05:00 +17°C° 0.3 mm 2 mps 649 mmHg 93%
    06:00 +18°C° 0 mm 2 mps 649 mmHg 91%
    07:00 +18°C° 0 mm 2 mps 650 mmHg 89%
    08:00 +19°C° 0 mm 2 mps 650 mmHg 87%
    09:00 +21°C° 0 mm 2 mps 651 mmHg 77%
    10:00 +23°C° 0 mm 2 mps 652 mmHg 67%
    11:00 +25°C° 0 mm 3 mps 652 mmHg 56%
    12:00 +26°C° 0.1 mm 3 mps 652 mmHg 56%
    13:00 +26°C° 0.1 mm 3 mps 651 mmHg 56%
    14:00 +26°C° 0.1 mm 2 mps 651 mmHg 55%
    15:00 +25°C° 0.3 mm 2 mps 650 mmHg 63%
    16:00 +24°C° 0.3 mm 2 mps 650 mmHg 71%
    17:00 +23°C° 0.3 mm 2 mps 649 mmHg 79%
    18:00 +21°C° 0.2 mm 2 mps 649 mmHg 83%
    19:00 +19°C° 0.2 mm 2 mps 649 mmHg 86%
    20:00 +18°C° 0.2 mm 2 mps 649 mmHg 90%
    21:00 +18°C° 0 mm 2 mps 649 mmHg 90%
    22:00 +18°C° 0 mm 2 mps 650 mmHg 91%
    23:00 +17°C° 0 mm 2 mps 650 mmHg 91%

    Day after tomorrow, 24 July, Wednesday

    Time Temperature Precipitation Wind Pressure Humidity
    00:00 +17°C° 0 mm 2 mps 650 mmHg 91%
    01:00 +17°C° 0 mm 2 mps 649 mmHg 92%
    02:00 +17°C° 0 mm 2 mps 649 mmHg 92%
    03:00 +17°C° 0 mm 2 mps 649 mmHg 92%
    04:00 +17°C° 0 mm 2 mps 649 mmHg 92%
    05:00 +16°C° 0 mm 2 mps 649 mmHg 93%
    06:00 +17°C° 0 mm 2 mps 649 mmHg 91%
    07:00 +18°C° 0 mm 2 mps 650 mmHg 89%
    08:00 +19°C° 0 mm 2 mps 650 mmHg 86%
    09:00 +20°C° 0 mm 2 mps 651 mmHg 78%
    10:00 +22°C° 0 mm 3 mps 651 mmHg 70%
    11:00 +25°C° 0 mm 3 mps 652 mmHg 62%
    12:00 +25°C° 0.2 mm 3 mps 652 mmHg 63%
    13:00 +25°C° 0.2 mm 3 mps 651 mmHg 63%
    14:00 +25°C° 0.2 mm 4 mps 651 mmHg 64%
    15:00 +25°C° 0.3 mm 3 mps 650 mmHg 67%
    16:00 +24°C° 0.3 mm 3 mps 650 mmHg 70%
    17:00 +22°C° 0.3 mm 3 mps 649 mmHg 73%
    18:00 +21°C° 0.1 mm 3 mps 649 mmHg 79%
    19:00 +19°C° 0.1 mm 2 mps 649 mmHg 85%
    20:00 +17°C° 0.1 mm 2 mps 649 mmHg 91%
    21:00 +17°C° 0 mm 2 mps 649 mmHg 91%
    22:00 +17°C° 0 mm 2 mps 650 mmHg 92%
    23:00 +17°C° 0 mm 2 mps 650 mmHg 93%

    25 July, Thursday

    Time Temperature Precipitation Wind Pressure Humidity
    00:00 +16°C° 0 mm 2 mps 649 mmHg 92%
    01:00 +16°C° 0 mm 2 mps 649 mmHg 92%
    02:00 +16°C° 0 mm 2 mps 648 mmHg 92%
    03:00 +16°C° 0 mm 2 mps 648 mmHg 92%
    04:00 +16°C° 0 mm 2 mps 648 mmHg 92%
    05:00 +16°C° 0 mm 2 mps 648 mmHg 92%
    06:00 +17°C° 0 mm 2 mps 649 mmHg 89%
    07:00 +18°C° 0 mm 2 mps 649 mmHg 87%
    08:00 +19°C° 0 mm 2 mps 650 mmHg 84%
    09:00 +20°C° 0 mm 2 mps 651 mmHg 75%
    10:00 +23°C° 0 mm 2 mps 651 mmHg 66%
    11:00 +25°C° 0 mm 2 mps 652 mmHg 56%
    12:00 +25°C° 0 mm 2 mps 652 mmHg 56%
    13:00 +26°C° 0 mm 2 mps 651 mmHg 55%
    14:00 +26°C° 0 mm 2 mps 651 mmHg 55%
    15:00 +25°C° 0.2 mm 2 mps 650 mmHg 61%
    16:00 +24°C° 0.2 mm 2 mps 650 mmHg 67%
    17:00 +24°C° 0.2 mm 2 mps 649 mmHg 74%
    18:00 +21°C° 0.1 mm 2 mps 649 mmHg 80%
    19:00 +20°C° 0.1 mm 2 mps 649 mmHg 87%
    20:00 +18°C° 0.1 mm 3 mps 649 mmHg 93%
    21:00 +18°C° 0 mm 2 mps 649 mmHg 94%
    22:00 +18°C° 0 mm 2 mps 650 mmHg 94%
    23:00 +17°C° 0 mm 2 mps 650 mmHg 94%

    26 July, Friday

    Time Temperature Precipitation Wind Pressure Humidity
    00:00 +17°C° 0 mm 2 mps 650 mmHg 93%
    01:00 +17°C° 0 mm 2 mps 649 mmHg 93%
    02:00 +17°C° 0 mm 2 mps 649 mmHg 92%
    03:00 +17°C° 0 mm 2 mps 649 mmHg 93%
    04:00 +17°C° 0 mm 2 mps 649 mmHg 93%
    05:00 +17°C° 0 mm 2 mps 649 mmHg 94%
    06:00 +18°C° 0 mm 2 mps 650 mmHg 90%
    07:00 +18°C° 0 mm 2 mps 650 mmHg 87%
    08:00 +19°C° 0 mm 2 mps 651 mmHg 84%
    09:00 +21°C° 0 mm 2 mps 651 mmHg 76%
    10:00 +24°C° 0 mm 2 mps 652 mmHg 68%
    11:00 +26°C° 0 mm 3 mps 653 mmHg 59%
    12:00 +26°C° 0.3 mm 3 mps 652 mmHg 62%
    13:00 +25°C° 0.3 mm 3 mps 651 mmHg 65%
    14:00 +25°C° 0.3 mm 3 mps 651 mmHg 68%
    15:00 +24°C° 0.5 mm 3 mps 650 mmHg 71%
    16:00 +24°C° 0.5 mm 3 mps 650 mmHg 75%
    17:00 +22°C° 0.5 mm 3 mps 650 mmHg 78%
    18:00 +21°C° 0.1 mm 3 mps 650 mmHg 82%
    19:00 +19°C° 0.1 mm 2 mps 650 mmHg 86%
    20:00 +18°C° 0.1 mm 2 mps 650 mmHg 90%
    21:00 +17°C° 0 mm 2 mps 650 mmHg 91%
    22:00 +17°C° 0 mm 2 mps 650 mmHg 91%
    23:00 +17°C° 0 mm 2 mps 650 mmHg 91%

    27 July, Saturday

    Time Temperature Precipitation Wind Pressure Humidity
    00:00 +17°C° 0 mm 2 mps 650 mmHg 92%
    01:00 +16°C° 0 mm 2 mps 650 mmHg 92%
    02:00 +16°C° 0 mm 2 mps 649 mmHg 93%
    03:00 +16°C° 0 mm 2 mps 649 mmHg 93%
    04:00 +16°C° 0 mm 2 mps 649 mmHg 93%
    05:00 +16°C° 0 mm 2 mps 649 mmHg 93%
    06:00 +17°C° 0 mm 2 mps 650 mmHg 91%
    07:00 +18°C° 0 mm 2 mps 650 mmHg 89%
    08:00 +19°C° 0 mm 2 mps 651 mmHg 87%
    09:00 +20°C° 0 mm 2 mps 651 mmHg 80%
    10:00 +23°C° 0 mm 2 mps 652 mmHg 73%
    11:00 +24°C° 0 mm 3 mps 652 mmHg 66%
    12:00 +24°C° 0.2 mm 3 mps 652 mmHg 65%
    13:00 +25°C° 0.2 mm 3 mps 652 mmHg 65%
    14:00 +25°C° 0.2 mm 3 mps 651 mmHg 64%
    15:00 +24°C° 0.6 mm 3 mps 651 mmHg 70%
    16:00 +22°C° 0.6 mm 3 mps 650 mmHg 77%
    17:00 +21°C° 0.6 mm 3 mps 650 mmHg 83%
    18:00 +20°C° 0.2 mm 2 mps 650 mmHg 86%
    19:00 +19°C° 0.2 mm 2 mps 650 mmHg 89%
    20:00 +18°C° 0.2 mm 2 mps 650 mmHg 92%
    21:00 +18°C° 0 mm 2 mps 650 mmHg 92%
    22:00 +18°C° 0 mm 1 mps 650 mmHg 92%
    23:00 +18°C° 0 mm 1 mps 651 mmHg 92%
    Show more